GLOBALSTAR M065 (31571 NORAD) Tracking and Keplerian Element Data

This shows tracking and keplerian element data for the satellite.

Feedback or suggestion? Click here.




ElementValue
Catalog31571
NameGLOBALSTAR M065
Epoch Orbit81691
Epoch Day35.11219437
Epoch Year2025
RAAN271.307
Inclination51.9884
Eccentricity0.0010843
Argument of Perigee17.3779
Mean Anonmoly147.176
Mean Motion12.61990951
Decay Rate-6.7E-07
L11 31571U 07020A 25035.11219437 -.00000067 00000+0 20793-3 0 9996
L22 31571 51.9884 271.3070 0010843 17.3779 147.1760 12.61990951816918



Live tracking and technical data element details for GLOBALSTAR M065 (NORAD 31571). GLOBALSTAR M065 can be tracked NOW for your location showing map with azimuth and elevation plus other details from your city location.







IsCatalogInMostPopularTable: catalog: 31571, numindb: 290
Update: records affected: 1



GetName: 31571 GLOBALSTAR M065

Hit Count: updated at: Fri, 16 May 2025 11:35:23 GMT